GFSSW_925_thetae_333.txt.gz
Theta_e
313 315 315 315 315 313 307 305 306 307 307 306 306 302 302 304 304 303 301 302 304 303 305 305 307 308 309 308 307 304 306 306 307 307 308 305 308 305 304 308 309 314 312 313 321
313 314 315 315 315 315 309 305 306 306 306 306 304 302 302 303 304 302 301 303 302 303 305 305 305 307 306 308 306 303 304 307 305 304 306 305 306 303 307 308 310 316 315 317 320
313 313 315 315 314 315 313 305 305 305 304 305 303 302 302 304 303 302 302 303 302 303 305 305 305 307 308 307 307 306 306 305 305 305 303 304 305 301 305 307 307 313 316 314 317
312 313 314 314 314 315 315 306 305 303 304 304 302 301 303 307 309 301 302 303 303 304 304 304 305 306 307 307 306 307 305 305 305 303 303 304 301 303 304 305 303 307 316 314 313
315 313 314 314 314 314 315 306 304 301 302 303 302 301 305 301 300 302 303 303 304 304 303 303 305 304 306 307 306 305 305 304 303 303 303 302 302 303 302 302 310 314 315 314 313
316 315 314 314 314 314 315 306 303 302 300 300 301 303 304 304 301 302 303 303 304 305 304 304 303 303 304 304 305 304 304 304 303 304 303 303 302 302 302 301 311 314 314 313 313
317 316 314 315 314 314 315 307 302 302 302 301 300 301 299 301 302 302 304 304 304 305 304 304 304 304 303 304 303 303 304 304 305 303 304 303 306 302 301 300 308 312 312 311 312
316 316 315 315 314 313 314 310 303 302 301 302 302 301 299 301 302 303 303 304 304 304 304 304 305 304 304 303 302 303 302 303 305 303 305 305 306 303 298 299 300 300 300 302 300
315 315 315 315 314 313 312 308 305 303 302 301 302 301 300 302 303 303 302 303 305 305 305 306 305 303 305 305 305 305 306 305 306 303 303 305 306 302 297 299 299 299 299 299 300
315 315 315 314 314 311 307 306 304 304 305 303 302 305 301 301 302 303 304 304 304 305 305 307 306 304 302 306 308 310 308 309 308 304 301 305 305 301 297 299 298 299 299 299 299
315 314 314 314 314 305 305 307 307 303 300 299 300 301 301 303 303 302 303 305 306 306 306 308 306 304 304 303 304 306 307 308 306 302 302 302 302 300 299 297 298 299 299 299 298
314 313 313 313 307 304 305 302 301 301 301 300 301 301 301 302 303 302 304 305 306 307 308 307 305 303 303 304 304 306 308 307 304 301 302 300 300 298 298 298 297 298 298 299 298
313 313 311 312 306 304 301 302 302 303 301 303 301 301 302 302 302 303 302 305 304 304 303 306 304 303 303 302 305 301 305 303 303 299 300 297 300 300 298 297 297 297 297 298 298
312 313 310 311 305 306 303 302 302 304 297 301 302 302 302 302 304 302 302 303 303 303 303 302 301 304 302 301 302 308 300 301 300 297 299 296 300 297 297 297 297 296 295 297 297
312 313 306 306 304 302 302 302 303 303 297 299 301 302 302 302 302 302 302 302 303 302 302 303 301 301 302 300 300 303 298 299 298 294 293 293 290 294 297 297 296 294 294 294 295
309 307 305 305 303 303 303 305 304 299 295 298 300 301 301 300 300 300 301 301 300 301 300 300 298 298 299 298 298 297 298 297 297 290 290 287 290 295 296 297 296 295 293 293 293
302 303 303 304 302 303 305 303 300 299 294 298 302 301 300 299 300 299 300 299 301 296 297 298 300 298 297 300 299 297 291 292 292 294 295 280 294 298 297 295 295 294 293 292 293
303 301 299 299 302 304 303 298 297 290 294 301 302 302 302 299 300 299 301 299 298 299 294 292 293 296 295 298 300 297 290 290 286 292 295 281 294 299 295 293 294 293 292 292 292
303 301 299 298 301 304 298 296 294 297 302 303 301 296 295 300 298 297 299 299 299 297 296 294 295 296 295 295 295 294 290 292 284 275 286 291 291 293 294 291 294 293 292 292 291
303 301 298 298 299 299 296 296 293 299 301 301 302 297 292 291 298 293 296 299 300 297 293 297 292 289 296 296 293 293 292 291 286 288 285 289 282 295 290 290 290 293 292 291 290
302 297 298 298 298 294 296 287 292 297 300 302 302 294 300 295 298 295 297 299 298 297 296 290 288 290 294 289 290 290 290 289 289 291 290 288 294 288 288 284 289 290 291 289 288
299 298 298 300 296 277 289 288 298 301 300 301 299 299 295 297 297 290 299 295 297 294 298 297 293 290 291 293 294 293 292 294 292 288 289 291 295 284 280 279 278 284 287 284 282
292 292 296 298 295 286 288 293 298 300 300 300 299 299 296 291 292 298 298 298 298 297 298 296 288 287 292 290 291 292 294 292 288 293 291 291 296 280 277 279 282 284 285 287 284
292 295 290 291 288 292 290 293 295 297 300 299 300 298 298 290 293 290 297 299 297 297 300 297 294 289 293 290 286 290 292 294 291 287 295 292 296 293 292 285 285 283 282 281 279
289 290 289 291 291 294 295 294 296 294 298 298 295 298 295 291 292 289 295 297 298 298 297 294 289 292 290 286 286 290 291 290 291 295 293 296 288 292 291 284 285 282 278 277 280
291 292 287 287 295 296 297 296 295 294 297 298 293 296 295 290 294 295 296 296 296 297 297 294 287 284 287 290 292 291 293 293 291 294 289 292 293 294 293 272 280 285 278 280 282
295 296 292 292 294 293 294 295 296 295 296 297 296 296 297 296 294 295 294 293 295 295 296 290 284 281 287 283 282 287 287 291 287 281 286 288 291 277 281 281 282 284 277 281 281

GFSSW_925_thetae_339.txt.gz
Theta_e
312 313 314 314 314 314 314 308 305 304 305 305 303 302 303 303 302 302 302 307 309 304 305 306 308 308 308 305 304 302 307 306 307 305 306 302 306 302 302 308 311 314 311 313 319
314 312 313 314 314 314 314 308 304 303 304 304 303 302 302 303 303 301 302 303 303 303 305 305 305 306 304 305 304 304 305 306 304 303 304 302 304 301 306 306 309 314 315 316 320
316 314 314 314 314 314 314 308 303 302 302 304 302 301 302 304 303 300 302 303 303 303 304 305 305 305 306 304 304 304 305 304 303 304 302 302 304 299 304 306 305 308 315 317 319
316 315 314 314 314 313 314 309 302 302 301 302 302 301 304 305 307 301 302 303 303 304 304 304 303 305 304 305 304 304 303 303 303 301 302 302 300 301 301 303 301 304 313 316 317
316 316 315 314 314 314 313 311 302 302 301 301 302 302 304 299 299 302 303 303 304 304 303 302 302 303 305 304 304 304 303 302 301 301 302 301 301 302 301 299 310 312 314 315 315
316 316 315 315 314 313 313 313 305 302 301 301 302 303 304 302 301 302 303 303 304 304 303 302 302 301 302 302 303 302 302 302 302 301 302 303 301 302 299 301 313 314 314 313 314
315 315 315 315 314 313 313 312 306 303 301 302 303 302 300 300 302 302 303 304 303 304 303 304 304 303 301 303 301 301 303 302 302 301 303 301 303 302 298 298 312 313 313 312 312
315 314 314 314 313 313 310 305 305 304 302 302 303 302 300 302 302 303 303 303 303 303 304 304 303 301 302 301 302 301 299 301 303 301 303 301 303 302 298 298 300 307 308 307 304
314 314 314 313 313 311 307 303 304 306 303 303 304 302 302 303 303 303 303 304 305 306 306 305 304 301 303 302 301 302 303 309 305 301 300 304 303 303 298 299 297 298 299 299 299
313 313 313 313 304 306 305 304 304 304 304 304 303 304 301 301 302 302 304 304 305 305 305 304 301 301 299 301 303 306 309 306 308 302 300 303 303 301 300 299 298 296 298 299 299
312 312 313 310 303 305 305 308 303 301 300 300 300 301 301 302 303 303 303 304 305 304 306 304 303 302 302 302 303 304 306 307 305 300 300 301 299 300 299 298 298 297 297 298 298
312 312 311 311 304 304 303 300 300 300 301 300 301 301 302 301 302 302 304 303 303 304 303 304 304 302 302 302 303 304 307 304 302 300 299 298 299 299 298 298 297 297 296 297 297
312 313 311 311 305 303 302 302 302 302 300 299 299 301 300 301 301 301 301 303 300 301 300 303 302 301 302 299 304 300 302 301 301 298 295 294 301 299 298 296 297 296 296 296 297
312 312 310 310 305 304 302 302 302 301 297 299 301 301 300 299 302 301 300 301 301 300 300 300 298 301 301 299 300 306 297 299 298 297 299 292 300 296 294 294 295 295 295 295 295
311 309 304 305 304 302 302 303 303 300 298 298 299 301 299 300 299 300 299 299 301 299 299 300 299 299 299 298 298 301 298 299 296 291 292 292 292 295 292 295 295 294 293 293 293
303 304 304 304 303 303 304 305 301 298 295 296 298 300 300 297 297 296 297 298 297 299 298 299 297 297 298 297 298 296 295 292 291 288 292 284 289 297 295 296 295 294 292 292 292
300 301 302 302 301 303 305 301 300 298 293 297 300 300 299 299 298 297 298 297 298 294 294 295 299 296 295 299 297 293 291 291 294 291 295 276 292 299 297 295 295 293 292 290 291
302 300 299 299 302 304 300 298 296 289 292 299 300 299 299 297 297 296 299 297 296 295 291 290 293 294 294 296 298 296 289 292 288 292 292 278 292 297 295 292 291 291 290 291 291
303 301 299 297 299 301 297 296 295 295 301 302 300 294 293 296 296 294 297 297 297 296 295 291 294 295 295 293 293 293 290 289 283 273 286 289 290 293 293 290 290 291 291 291 290
304 301 298 298 298 298 296 295 294 297 300 300 299 295 291 291 296 292 293 297 298 296 291 294 292 288 295 294 291 292 290 292 287 289 288 289 282 295 290 289 289 291 288 288 290
301 297 298 299 297 294 296 286 291 295 298 301 300 293 298 294 296 292 296 297 297 296 293 288 288 291 293 288 288 290 289 289 288 289 290 288 294 289 285 282 286 286 287 284 285
297 299 297 297 297 275 287 286 296 300 299 300 298 297 294 295 295 289 297 295 296 294 297 296 292 290 291 291 292 292 290 292 292 287 286 290 292 289 282 276 274 284 286 286 283
291 291 295 297 297 286 287 292 297 299 299 299 298 297 294 290 291 296 297 297 297 296 297 295 288 287 294 291 290 291 292 289 286 290 289 291 294 282 275 279 278 281 285 284 284
292 299 292 289 287 293 289 292 295 296 299 298 299 297 296 289 292 290 295 297 296 296 299 295 293 289 292 290 284 290 291 291 289 285 292 292 295 294 291 288 290 290 286 281 281
289 291 289 292 291 292 293 293 295 295 297 297 293 297 294 291 291 288 294 295 297 298 295 293 289 290 288 284 283 287 289 289 289 290 290 295 286 292 292 288 286 281 279 282 284
293 293 287 287 293 295 295 294 294 292 296 297 294 296 294 290 293 294 294 294 294 296 296 292 286 283 286 287 289 290 291 291 290 291 285 290 290 278 280 273 280 285 284 282 284
294 293 293 292 293 293 293 294 295 294 295 296 296 295 296 295 294 293 292 292 293 293 294 287 282 281 286 282 282 287 285 286 285 280 284 286 285 275 283 285 287 287 285 283 285

GFSSW_925_thetae_342.txt.gz
Theta_e
315 313 313 314 314 314 314 306 304 302 304 304 303 302 303 302 302 303 304 307 308 303 305 306 308 308 309 311 308 308 313 312 311 311 310 308 310 307 308 313 315 317 315 315 322
315 315 314 314 314 314 314 306 303 302 303 304 303 302 302 304 302 302 301 303 303 303 305 307 309 309 310 310 310 313 312 311 308 307 308 307 308 307 310 312 314 317 318 317 322
316 315 314 314 314 313 313 307 303 302 302 302 302 302 303 304 306 302 302 303 303 303 305 305 306 309 309 310 309 310 311 307 306 308 305 306 307 305 308 310 309 310 315 318 320
316 316 314 314 314 313 313 311 303 302 301 301 302 303 303 305 309 302 303 303 304 303 304 305 307 310 309 309 307 309 306 306 306 304 304 305 305 306 306 308 305 310 310 318 319
316 316 315 314 314 313 312 312 305 302 301 301 302 304 304 305 303 302 303 304 304 304 304 305 307 308 310 308 308 308 306 305 304 305 305 304 305 305 306 304 311 315 316 318 318
315 315 314 315 314 313 313 311 306 303 301 302 302 304 305 305 301 302 303 303 304 304 304 305 305 306 307 306 308 306 306 305 305 305 305 306 305 305 304 303 313 317 319 319 317
315 314 314 314 313 313 311 306 305 304 302 303 302 303 304 303 302 303 303 303 303 303 305 304 304 306 306 307 304 305 306 305 306 305 306 305 306 306 304 302 311 316 318 318 318
313 313 314 313 313 312 306 303 305 305 302 303 302 303 304 303 302 303 304 304 304 304 304 304 303 306 306 304 307 305 306 309 306 306 305 305 311 306 303 302 306 312 316 317 316
313 312 312 312 304 308 304 303 305 305 304 304 304 306 305 303 303 303 303 304 305 306 306 305 305 307 308 307 308 312 313 310 311 305 305 307 310 307 304 304 304 304 306 308 308
312 312 312 306 304 306 306 305 306 304 304 304 304 308 305 304 302 303 304 305 307 306 309 308 307 310 309 312 315 313 314 311 311 306 306 308 310 309 307 304 306 305 303 303 304
312 312 311 305 303 304 306 307 307 306 302 303 302 303 303 302 302 303 303 304 307 309 312 308 313 310 306 306 306 308 310 310 309 303 305 306 306 308 308 306 306 306 304 303 303
312 312 311 305 303 304 305 304 301 302 304 301 301 302 301 301 305 304 304 307 307 310 307 312 309 305 304 305 305 307 309 310 307 304 303 303 304 306 304 304 302 304 304 303 302
312 309 310 307 304 303 303 302 302 302 305 302 301 302 302 302 303 304 303 305 306 309 309 310 305 303 304 304 308 305 306 305 304 303 299 301 307 307 303 300 300 300 301 301 301
312 306 304 308 304 303 302 302 302 300 315 303 304 303 302 301 304 300 300 304 306 308 304 305 302 303 304 303 303 310 300 300 302 306 309 298 311 305 300 300 301 301 300 300 301
307 307 305 304 303 303 302 303 303 301 318 302 303 301 300 302 300 303 299 303 304 302 306 304 303 303 304 300 300 303 300 301 301 304 302 302 307 305 299 301 301 301 299 298 298
301 302 304 304 304 303 304 305 300 318 312 302 301 302 304 301 300 300 301 301 300 302 302 301 298 300 300 299 300 298 298 297 298 303 311 295 300 305 302 299 301 300 299 298 297
302 300 301 302 302 304 304 302 316 316 299 306 304 302 301 301 301 300 301 300 304 313 306 300 301 298 297 302 300 300 308 317 314 314 310 289 299 306 302 299 298 297 298 297 297
304 303 299 299 300 303 300 311 314 298 301 300 302 300 302 299 300 299 302 303 299 300 302 306 310 301 296 299 301 299 300 307 305 305 304 289 305 304 296 295 296 297 297 298 298
304 301 299 297 299 300 307 312 311 301 302 303 301 303 304 298 299 299 300 302 299 298 306 305 303 297 296 295 297 299 304 293 295 284 300 301 301 299 297 298 297 296 296 296 295
303 301 298 298 298 298 305 306 302 298 301 302 304 299 305 301 300 301 297 299 299 298 295 298 307 294 297 295 295 298 294 303 301 304 304 303 298 302 304 300 297 295 295 294 293
300 306 299 298 298 303 311 303 297 297 300 302 301 301 299 301 298 300 298 298 298 297 295 295 299 303 295 299 301 298 301 297 298 297 304 303 304 308 301 295 293 293 293 293 292
297 309 297 297 304 292 305 295 297 301 300 301 299 298 299 298 299 298 298 298 297 297 299 298 298 303 302 293 294 295 299 298 301 301 297 297 301 296 292 290 289 291 292 292 291
301 301 295 298 311 303 294 297 299 301 300 300 299 299 296 298 300 297 298 298 298 298 299 298 300 304 305 295 293 296 296 294 294 295 300 299 300 288 291 295 294 290 292 291 289
300 307 301 296 294 301 299 299 300 298 300 299 299 298 297 295 294 297 297 298 297 297 298 297 296 302 301 303 296 297 296 295 297 301 299 299 301 299 296 293 292 291 290 288 289
295 299 293 306 303 296 296 296 298 299 298 298 297 299 299 296 295 295 296 296 298 298 297 298 300 294 295 293 289 294 295 295 294 297 298 299 297 297 293 290 289 287 288 289 289
302 302 293 295 295 297 297 297 298 295 299 299 298 296 297 297 297 296 295 296 296 297 298 294 298 290 295 290 290 292 293 294 293 294 291 293 294 288 287 285 289 290 290 289 287
293 293 298 295 296 298 300 297 297 296 296 296 297 298 297 297 295 295 294 294 295 297 297 295 294 295 298 287 289 296 294 293 292 290 292 294 292 286 288 288 288 289 288 287 286

GFSSW_925_thetae_345.txt.gz
Theta_e
315 315 314 314 314 314 313 305 303 302 304 304 302 302 302 304 305 305 305 306 309 303 305 308 310 311 312 314 313 314 315 314 313 313 313 311 313 311 312 316 317 318 318 319 325
315 315 314 314 314 313 313 307 303 302 302 303 302 302 302 303 306 304 302 303 303 303 307 310 310 311 312 313 314 315 314 313 311 310 311 310 311 310 312 314 316 319 320 318 323
315 315 314 314 314 313 313 310 303 302 302 302 302 302 303 304 308 304 303 303 303 304 306 307 309 311 311 312 312 313 314 310 309 309 308 309 310 308 311 313 312 313 315 321 322
315 315 315 314 314 313 313 312 305 302 301 301 302 304 303 306 312 303 303 304 304 304 305 308 310 310 310 311 310 311 309 310 309 307 307 308 307 308 308 310 308 312 312 320 321
315 315 314 314 314 313 313 310 305 302 301 302 303 304 306 307 304 302 303 304 305 305 307 308 310 311 311 309 310 310 309 308 307 307 307 307 308 308 308 307 309 315 313 319 321
315 314 314 314 313 313 309 305 305 303 302 303 303 305 308 306 302 303 303 304 305 306 307 308 309 310 310 309 311 309 308 308 308 308 307 308 308 307 308 305 310 315 318 320 320
314 313 313 312 313 311 305 305 306 303 302 303 302 306 305 304 302 304 305 304 305 305 308 306 307 310 310 310 307 308 309 308 309 309 309 307 310 308 307 305 308 312 316 319 320
313 312 312 312 307 306 304 305 308 304 304 304 304 307 305 303 304 305 305 307 307 307 306 306 307 308 308 308 308 308 309 313 308 309 308 309 313 308 307 306 307 309 314 317 318
312 312 310 306 305 305 305 304 307 305 304 305 308 309 306 305 305 304 305 306 308 308 309 307 308 310 311 310 313 316 317 312 313 308 309 310 313 311 308 308 309 308 307 311 312
312 311 309 304 304 306 307 306 305 305 305 306 306 311 306 306 305 304 305 306 309 309 311 310 311 313 312 315 317 313 313 313 313 309 307 311 312 312 311 310 309 309 308 306 306
312 311 310 303 303 304 307 309 310 308 305 305 305 306 305 304 304 306 305 307 310 311 314 311 316 313 309 309 309 310 312 312 311 307 306 310 309 308 308 309 308 309 309 307 306
312 308 311 304 304 305 306 306 304 306 306 304 304 305 303 303 307 306 306 309 311 314 312 316 312 307 307 308 308 310 312 312 310 307 304 306 304 308 304 303 303 304 305 306 305
312 306 305 307 304 304 305 304 302 303 309 304 304 304 303 304 305 304 304 308 310 314 312 313 307 305 306 307 310 308 308 307 306 305 306 303 308 305 302 303 303 303 303 303 303
311 307 304 306 308 304 305 302 304 300 312 305 306 305 304 304 306 302 302 305 308 308 308 307 305 305 307 305 305 312 303 303 305 308 311 302 315 305 303 303 302 302 302 301 302
304 304 305 304 305 307 303 304 303 305 325 304 305 303 304 304 303 304 301 306 306 305 310 306 304 305 306 302 302 306 301 302 303 307 305 306 312 306 302 303 301 301 301 301 300
302 301 303 304 305 304 305 305 303 318 321 305 304 304 305 304 303 304 304 303 303 305 304 303 301 301 301 302 301 300 301 301 302 309 320 300 304 308 303 301 300 299 299 299 299
305 303 300 302 305 303 303 307 317 323 307 312 306 304 303 303 302 303 303 302 305 316 311 304 303 301 299 305 303 303 311 328 326 322 315 296 301 307 301 299 299 298 298 298 298
305 302 299 299 299 302 304 316 321 308 312 303 304 303 303 301 303 302 305 305 302 303 306 310 319 305 299 301 302 301 304 312 308 308 306 294 307 305 299 298 298 297 297 296 296
304 302 299 297 298 299 310 316 314 311 305 305 304 309 309 302 301 304 303 304 301 301 308 308 309 299 297 298 299 303 312 297 303 291 303 306 307 301 299 299 297 296 295 295 294
303 304 302 298 298 305 305 309 308 302 304 304 307 302 314 308 305 305 301 301 301 300 299 301 311 299 299 297 297 302 297 310 308 308 307 310 306 305 304 301 297 294 294 293 293
302 312 302 298 301 306 312 306 303 300 302 304 303 306 302 308 301 304 302 301 300 300 298 299 304 306 296 302 307 301 305 301 303 302 306 304 305 304 301 295 294 295 293 293 292
303 310 299 298 305 299 305 304 300 303 302 303 302 302 305 302 303 304 301 301 299 299 301 300 301 306 314 296 296 297 303 302 303 304 301 300 301 299 295 294 293 293 294 293 291
309 307 299 302 311 305 299 301 302 303 303 302 302 301 299 304 305 300 300 300 300 299 301 300 307 307 311 298 296 298 299 299 298 298 301 302 302 294 297 295 294 293 292 292 291
307 308 304 302 301 308 306 305 304 300 302 301 301 300 299 299 297 301 299 299 299 299 299 298 300 306 305 307 299 300 299 298 299 303 301 303 304 300 297 292 291 290 290 292 290
304 306 299 306 310 302 301 302 302 303 300 300 301 301 303 302 299 298 299 298 299 299 299 299 302 298 299 299 296 297 297 299 299 298 300 299 300 301 292 290 289 289 292 290 288
310 310 299 301 299 301 300 301 303 300 301 301 301 300 300 302 300 299 298 297 298 299 299 298 301 293 297 294 293 294 295 296 296 297 297 297 297 289 289 289 289 289 289 288 287
296 296 302 301 301 303 308 303 301 299 299 299 300 300 300 300 299 298 297 296 297 299 300 299 299 298 299 292 292 299 298 297 296 295 295 294 293 289 288 288 287 288 289 287 286